[[{"header":{"parameterUnit":"m.s-1","parameterCategory":1,"la1":30.2991,"la2":30.254,"lo1":-89.0895,"lo2":-89.0444,"dy":0.0017,"dx":0.0017,"nx":28,"ny":28,"refTime":"2023-10-06T03:00:00:Z","depth":0,"parameterNumber":2,"parameterNumberName":"U-component_of_WINDS"},"data":[0,0,0,0,0,0,0,0,0,0,0,0,0,0,0,0,0,0,0,0,0,0,0,0,0,0,0,0,0,0,0,0,0,0,0,0,0,0,0,0,0,0,0,0,0,0,0,0,0,0,0,0,0,0,0,0,0,0,0.867,0.8674,0,0.9015,0.9018,0.9022,0.9096,0.9093,0.909,0.9088,0.9441,0.9452,0.9464,0,0,0,0,0,0,0,0,0,0,0,0,0,0.8082,0.8092,0.867,0.8674,0.8678,0.9014,0.9019,0.9023,0.9096,0.9093,0.909,0.9087,0.9437,0.9451,0.9465,0,0,0,0,0,0,0,0,0,0,0,0,0,0.8372,0.8095,0.8669,0.8755,0.8766,0.9013,0.9019,0.9025,0.9097,0.9093,0.9089,0.9085,0.9432,0.9449,0.9467,0.9652,0,0,0.9521,0.9528,0,0,0,0,0,0,0,0,0.8356,0.8394,0.8738,0.875,0.8762,0.9008,0.8941,0.9235,0.9098,0.8971,0.9088,0.9084,0.93,0.9328,0.9401,0.9668,0.9684,0.9522,0.9533,0.954,0.9545,0,0,0,0,0,0,0,0.8336,0.838,0.8806,0.8743,0.8758,0.8779,0.8816,0.8997,0.9153,0.8982,0.8988,0.9028,0.9306,0.9384,0.941,0.9689,0.9522,0.9537,0.9548,0.9555,1.0137,1.0142,0,0,0,0,0,0,0.83,0.8362,0.8795,0.8816,0.8546,0.8792,0.8834,0.8933,0.9151,0.918,0.9031,0.903,0.9356,0.9389,0.9423,0.9662,0.954,0.9557,0.9567,1.0132,1.0138,1.0143,0,0,0,0,0,0,0.8287,0.8338,0.8781,0.8592,0.865,0.8807,0.8917,0.8942,0.902,0.9188,0.9216,0.9082,0.9354,0.9398,0.9597,0.9675,0.9565,0.9581,1.0126,1.0134,1.0141,1.0136,0,0,0,0,0,0,0.827,0.8333,0.8402,0.8592,0.8659,0.8948,0.8922,0.8951,0.9051,0.9053,0.9243,0.9271,0.9354,0.957,0.9615,0.9697,0.9595,1.012,1.013,1.0138,1.013,1.0142,1.0153,0,0,0,0,0,0.8248,0.8385,0.8405,0.8457,0.875,0.8952,0.899,0.9084,0.9056,0.913,0.924,0.9265,0.9658,0.959,0.964,0.9729,1.0116,1.0127,1.0138,1.0125,1.014,1.0152,0,0,0,0,0,0,0.8197,0.8411,0.8436,0.8637,0.8777,0.8964,0.9059,0.9095,0.9244,0.924,0.9349,0.9392,0.9586,0.9677,0.9597,0.9926,0.9886,0.9908,0.9859,0.9875,0.9886,0.9861,0.9609,0,0,0,0,0,0.821,0.8355,0.8534,0.8695,0.8764,0.8899,0.8991,0.9052,0.92,0.9258,0.9382,0.9525,0.9683,0.9783,0.9936,1.0143,1.019,1.023,1.0241,1.025,1.0268,1.0394,1.0416,1.0179,1.0179,1.0179,0,0,0.8236,0.8371,0.8455,0.8688,0.8803,0.8955,0.8948,0.9106,0.9221,0.9282,0.948,0.9576,0.9744,0.9951,1.0048,1.0033,1.0344,1.0264,1.0269,1.0283,1.0407,1.043,1.045,1.0187,1.0186,1.0184,0,0,0.8363,0.8477,0.8628,0.8745,0.892,0.9011,0.9048,0.9232,0.93,0.95,0.9552,0.9691,0.9956,1.0077,1.0173,1.0356,1.0389,1.0403,1.0463,1.0584,1.0603,1.0621,1.0693,1.0717,1.042,1.042,1.042,0,0.8374,0.8603,0.8701,0.8861,0.8965,0.903,0.9188,0.9296,0.9511,0.9583,0.9563,0.9905,1.0022,1.0262,1.0308,1.0381,1.0431,1.0382,1.0592,1.0611,1.0628,1.0699,1.0725,1.0421,1.0421,1.0421,1.0421,0,0.8612,0.8771,0.8872,0.9084,0.9199,0.9355,0.9481,0.9587,0.9639,0.9734,0.9942,1.0086,1.0273,1.0334,1.0384,1.0585,1.0571,1.057,1.0534,1.065,1.0719,1.0746,1.0423,1.0422,1.0422,1.0422,0,0,0.8713,0.8982,0.9018,0.9119,0.9321,0.9447,0.961,0.9796,0.9888,1.0036,1.018,1.0408,1.0412,1.0521,1.0586,1.0692,1.0839,1.068,1.0686,1.071,1.1077,1.108,1.1109,1.086,1.0866,1.087,1.1066,0,0.8869,0.9163,0.926,0.9505,0.9658,0.9727,0.987,1.0012,1.0106,1.0252,1.0356,1.0519,1.0507,1.0575,1.0683,1.0797,1.0915,1.0784,1.1,1.1006,1.096,1.1144,1.1146,1.1323,1.1092,1.1097,1.11,0,0.9089,0.9247,0.9508,0.97,0.9768,0.9895,1.0079,1.0215,1.038,1.0442,1.0568,1.0628,1.0806,1.0758,1.1009,1.0918,1.1013,1.1083,1.1093,1.1119,1.1062,1.1181,1.1381,1.1409,1.1142,1.1138,1.1135,0,0.9145,0.9421,0.9617,0.97,0.9926,1.0016,1.0115,1.0276,1.0385,1.0545,1.0619,1.0796,1.0894,1.1033,1.1141,1.1095,1.1386,1.1344,1.1446,1.1444,1.1506,1.1502,1.1729,1.1558,1.1558,1.1557,1.1557,0,0.9312,0.9471,0.9646,0.9766,0.9949,1.0061,1.024,1.0343,1.0488,1.0632,1.0701,1.0835,1.0968,1.1122,1.1207,1.1407,1.1449,1.1508,1.1529,1.1505,1.1498,1.157,1.1563,1.1564,1.1563,1.1561,1.156,0,0.9405,0.9528,0.9747,0.9947,1.0001,1.0128,1.03,1.0422,1.0522,1.0705,1.0754,1.0911,1.1096,1.1218,1.1452,1.1511,1.1731,1.1746,1.1676,1.1687,1.1786,1.1777,1.2071,1.2119,1.191,1.1912,1.1914,0,0.9505,0.9631,0.9847,0.995,1.005,1.0213,1.0327,1.0444,1.056,1.0763,1.0862,1.1053,1.1212,1.1505,1.1641,1.1824,1.1848,1.1939,1.1876,1.185,1.1858,1.1851,1.1868,1.195,1.1951,1.1953,1.1954,0,0.9673,0.973,0.9891,1.0077,1.0211,1.0361,1.0512,1.0593,1.0738,1.0865,1.1057,1.1181,1.1425,1.1616,1.1813,1.1917,1.1963,1.1973,1.2008,1.1986,1.1943,1.1975,1.171,1.1966,1.1965,1.1964,1.1963,1.1963,0.9778,0.9896,1.0069,1.0249,1.0376,1.0518,1.0646,1.0764,1.0927,1.1136,1.1196,1.1398,1.1569,1.1839,1.1948,1.211,1.21,1.2148,1.2161,1.2173,1.2178,1.1913,1.2145,1.2145,1.2145,1.2145,1.2144,0,0.9955,1.0072,1.0236,1.0449,1.0592,1.0623,1.0795,1.0913,1.1091,1.1246,1.1404,1.1629,1.1817,1.197,1.2165,1.2266,1.2293,1.2314,1.231,1.2335,1.2171,1.2125,1.229,1.229,1.229,1.229,1.229,1.229,1.0064,1.0269,1.0348,1.0619,1.0736,1.0936,1.1033,1.1167,1.1293,1.1542,1.17,1.1799,1.1957,1.2165,1.2341,1.2381,1.2453,1.2471,1.2517,1.2361,1.2345,1.233,1.2288,1.2484,1.2484,1.2668,1.267,1.2671]},{"header":{"parameterUnit":"m.s-1","parameterCategory":1,"la1":30.2991,"la2":30.254,"lo1":-89.0895,"lo2":-89.0444,"dy":0.0017,"dx":0.0017,"nx":28,"ny":28,"refTime":"2023-10-06T03:00:00:Z","depth":0,"parameterNumber":3,"parameterNumberName":"V-component_of_WINDS"},"data":[0,0,0,0,0,0,0,0,0,0,0,0,0,0,0,0,0,0,0,0,0,0,0,0,0,0,0,0,0,0,0,0,0,0,0,0,0,0,0,0,0,0,0,0,0,0,0,0,0,0,0,0,0,0,0,0,0,0,-5.5672,-5.5671,0,-5.5592,-5.5591,-5.559,-5.5414,-5.541,-5.5407,-5.5403,-5.5325,-5.5327,-5.5328,0,0,0,0,0,0,0,0,0,0,0,0,0,-5.5677,-5.5677,-5.5672,-5.5671,-5.567,-5.5592,-5.5591,-5.559,-5.5415,-5.541,-5.5406,-5.5402,-5.5325,-5.5326,-5.5328,0,0,0,0,0,0,0,0,0,0,0,0,0,-5.5644,-5.5678,-5.5672,-5.5573,-5.5563,-5.5592,-5.5591,-5.5589,-5.5416,-5.541,-5.5405,-5.54,-5.5324,-5.5326,-5.5328,-5.5448,0,0,-5.5334,-5.5335,0,0,0,0,0,0,0,0,-5.5646,-5.5644,-5.5589,-5.558,-5.5569,-5.5507,-5.5563,-5.5542,-5.5417,-5.5472,-5.5403,-5.5397,-5.5391,-5.5387,-5.5383,-5.5444,-5.5441,-5.5334,-5.5335,-5.5336,-5.5337,0,0,0,0,0,0,0,-5.5648,-5.5646,-5.564,-5.5588,-5.5576,-5.5534,-5.5523,-5.5559,-5.5463,-5.5467,-5.5454,-5.5446,-5.5384,-5.5382,-5.538,-5.5439,-5.5334,-5.5336,-5.5337,-5.5338,-5.5593,-5.5599,0,0,0,0,0,0,-5.5664,-5.5649,-5.5643,-5.5638,-5.5595,-5.5538,-5.5526,-5.5533,-5.5462,-5.5446,-5.5451,-5.5439,-5.5382,-5.5378,-5.5377,-5.5512,-5.5336,-5.5338,-5.5339,-5.5588,-5.5594,-5.5601,0,0,0,0,0,0,-5.5665,-5.5665,-5.5646,-5.564,-5.5634,-5.5544,-5.5553,-5.5534,-5.5532,-5.545,-5.5432,-5.5467,-5.5377,-5.5374,-5.5431,-5.5507,-5.5339,-5.534,-5.5581,-5.559,-5.5598,-5.5784,0,0,0,0,0,0,-5.5666,-5.5667,-5.5711,-5.5642,-5.5635,-5.5701,-5.5557,-5.5536,-5.5535,-5.5518,-5.546,-5.5445,-5.5373,-5.5429,-5.5433,-5.5506,-5.5342,-5.5574,-5.5585,-5.5595,-5.5771,-5.5798,-5.5821,0,0,0,0,0,-5.5667,-5.5768,-5.5714,-5.5714,-5.5688,-5.5706,-5.5702,-5.5616,-5.5542,-5.5586,-5.5533,-5.5447,-5.5498,-5.5436,-5.5439,-5.5515,-5.5569,-5.5582,-5.5594,-5.5759,-5.5792,-5.582,0,0,0,0,0,0,-5.5849,-5.5757,-5.5696,-5.5778,-5.5751,-5.5676,-5.5729,-5.5654,-5.5649,-5.5633,-5.5527,-5.5516,-5.5587,-5.5556,-5.5489,-5.5626,-5.5519,-5.5533,-5.5644,-5.5675,-5.5699,-5.5706,-5.5344,0,0,0,0,0,-5.5899,-5.592,-5.5838,-5.5918,-5.5907,-5.5821,-5.5826,-5.5761,-5.573,-5.5718,-5.5669,-5.5643,-5.5652,-5.5662,-5.5666,-5.5764,-5.5749,-5.5818,-5.5843,-5.5864,-5.5878,-5.5927,-5.5956,-5.5642,-5.5642,-5.5642,0,0,-5.6002,-5.5954,-5.5974,-5.5953,-5.5925,-5.595,-5.5813,-5.5845,-5.5863,-5.5723,-5.5773,-5.5737,-5.57,-5.5779,-5.5811,-5.5755,-5.5961,-5.588,-5.5897,-5.5899,-5.5943,-5.5973,-5.6,-5.5651,-5.5649,-5.5648,0,0,-5.6202,-5.6168,-5.623,-5.6204,-5.6162,-5.6104,-5.6119,-5.6055,-5.6025,-5.6073,-5.5969,-5.5989,-5.6008,-5.5986,-5.5978,-5.6169,-5.6089,-5.6173,-5.6305,-5.6355,-5.6379,-5.6401,-5.6469,-5.6495,-5.6187,-5.6187,-5.6187,0,-5.6336,-5.6369,-5.6272,-5.6311,-5.6305,-5.6177,-5.624,-5.622,-5.6183,-5.6182,-5.612,-5.6141,-5.6107,-5.6178,-5.6225,-5.6222,-5.6236,-5.618,-5.6383,-5.6404,-5.6422,-5.6487,-5.6513,-5.6198,-5.6196,-5.6195,-5.6194,0,-5.6535,-5.656,-5.6615,-5.6581,-5.6581,-5.6632,-5.6544,-5.6556,-5.6491,-5.644,-5.6491,-5.6445,-5.6438,-5.645,-5.6388,-5.6513,-5.6479,-5.6402,-5.6293,-5.6465,-5.6523,-5.6547,-5.6213,-5.6209,-5.6206,-5.6203,0,0,-5.6851,-5.676,-5.6783,-5.6765,-5.6709,-5.6726,-5.6771,-5.6763,-5.6775,-5.6753,-5.6789,-5.6807,-5.6735,-5.6726,-5.6659,-5.6703,-5.6857,-5.6619,-5.6617,-5.6666,-5.6992,-5.7051,-5.7081,-5.6804,-5.6808,-5.6811,-5.6995,0,-5.7039,-5.711,-5.7024,-5.7113,-5.7135,-5.7013,-5.7052,-5.7023,-5.6975,-5.6987,-5.6935,-5.695,-5.6853,-5.6846,-5.6883,-5.6831,-5.6922,-5.6816,-5.6837,-5.6839,-5.6851,-5.7112,-5.7174,-5.735,-5.7017,-5.7021,-5.7024,0,-5.7268,-5.7256,-5.7348,-5.7284,-5.729,-5.7327,-5.7312,-5.7324,-5.7288,-5.725,-5.724,-5.716,-5.72,-5.7093,-5.7147,-5.7078,-5.708,-5.7056,-5.706,-5.706,-5.6943,-5.7119,-5.7404,-5.7431,-5.7059,-5.7056,-5.7053,0,-5.749,-5.7496,-5.7551,-5.754,-5.7468,-5.7496,-5.7468,-5.7426,-5.7426,-5.7413,-5.7412,-5.7405,-5.7401,-5.7398,-5.7318,-5.7247,-5.7382,-5.7269,-5.7353,-5.7356,-5.7388,-5.7387,-5.7679,-5.739,-5.7389,-5.7389,-5.7388,0,-5.771,-5.7771,-5.765,-5.7684,-5.7749,-5.7649,-5.7716,-5.7675,-5.7639,-5.7664,-5.7558,-5.7584,-5.7476,-5.7491,-5.7429,-5.7483,-5.7482,-5.7454,-5.7437,-5.7464,-5.7468,-5.7465,-5.7451,-5.7395,-5.7394,-5.7393,-5.7391,0,-5.7969,-5.789,-5.7942,-5.7869,-5.7852,-5.7903,-5.784,-5.7869,-5.7814,-5.7847,-5.7849,-5.7763,-5.7774,-5.7694,-5.7691,-5.7649,-5.7734,-5.7695,-5.7746,-5.7734,-5.7823,-5.7816,-5.8124,-5.8159,-5.7848,-5.7851,-5.7853,0,-5.8115,-5.8159,-5.809,-5.8098,-5.8074,-5.8089,-5.8088,-5.7991,-5.7995,-5.7956,-5.799,-5.7992,-5.7989,-5.8012,-5.7951,-5.7947,-5.7908,-5.8016,-5.7907,-5.7933,-5.791,-5.7909,-5.7913,-5.804,-5.8044,-5.8047,-5.8049,0,-5.8383,-5.8341,-5.8343,-5.8332,-5.8333,-5.832,-5.8299,-5.8312,-5.8207,-5.8217,-5.8226,-5.8223,-5.8219,-5.8223,-5.8207,-5.8178,-5.8097,-5.8084,-5.8103,-5.8131,-5.8159,-5.8145,-5.7809,-5.8077,-5.8075,-5.8073,-5.8071,-5.807,-5.859,-5.8623,-5.8579,-5.8584,-5.8558,-5.8541,-5.8565,-5.8512,-5.8518,-5.8506,-5.8448,-5.8468,-5.843,-5.84,-5.8378,-5.8393,-5.8341,-5.8369,-5.8376,-5.8385,-5.8401,-5.8156,-5.8389,-5.8389,-5.8388,-5.8387,-5.8386,0,-5.8852,-5.8817,-5.8823,-5.8797,-5.8802,-5.8723,-5.8696,-5.8705,-5.8724,-5.8694,-5.8692,-5.8703,-5.8705,-5.8643,-5.8638,-5.8662,-5.8624,-5.8663,-5.8661,-5.8656,-5.8448,-5.8431,-5.8694,-5.8694,-5.8694,-5.8694,-5.8693,-5.8693,-5.8989,-5.904,-5.8994,-5.9031,-5.8995,-5.9013,-5.9004,-5.8988,-5.8964,-5.898,-5.8981,-5.894,-5.8897,-5.8888,-5.8887,-5.8868,-5.8871,-5.8924,-5.8893,-5.87,-5.867,-5.8642,-5.8626,-5.8925,-5.8926,-5.9099,-5.9101,-5.9102]}]]